Regional Weather Roundup
Issued by NWS Upton, NY

Home | Current Version | Previous Version | Text Only | Print | Product List | Glossary On
Versions: 1 2 3 4 5 6 7 8 9 10 11 12 13 14 15 16 17 18 19 20 21 22 23 24 25 26 27 28 29 30 31 32 33 34 35 36 37 38 39 40 41 42 43 44 45 46 47 48 49 50
000
ASUS41 KOKX 211209
RWROKX

REGIONAL WEATHER ROUNDUP
NATIONAL WEATHER SERVICE NEW YORK NY
800 AM EDT SAT OCT 21 2017

NOTE: "FAIR" INDICATES FEW OR NO CLOUDS BELOW 12,000 FEET WITH NO
SIGNIFICANT WEATHER AND/OR OBSTRUCTIONS TO VISIBILITY.

NYZ071-072-176-178-NJZ106-104-211300-
NEW YORK CITY METRO AREA

CITY           SKY/WX    TMP DP  RH WIND       PRES   REMARKS
Central Park   PTCLDY    58  38  47 CALM      30.33R
Bronx Bot Gard   N/A     54  45  71 N1        30.31R
LaGuardia APRT PTCLDY    61  45  55 CALM      30.30R
Kennedy INTL   MOCLDY    53  44  71 CALM      30.31R
Breezy Point     N/A     61 N/A N/A NW2         N/A
Newark/Liberty PTCLDY    55  40  56 CALM      30.31R
Teterboro      CLEAR     51  42  71 CALM      30.31R
$$

NYZ177-179-078>081-211300-
LONG ISLAND NEW YORK

CITY           SKY/WX    TMP DP  RH WIND       PRES   REMARKS
Jones Beach      N/A     57 N/A N/A NW2         N/A
Matinecock PT    N/A     61 N/A N/A NE1         N/A
Farmingdale    CLEAR     54  43  66 N7        30.30R
MacArthur/ISP  PTCLDY    52  49  89 CALM      30.30R
Shirley        CLEAR     49  46  90 CALM      30.30R
Mt Sinai Harb    N/A    N/A N/A N/A CALM        N/A
Westhampton    CLEAR     45  42  89 NW6       30.31R
East Hampton   FAIR      45  44  94 CALM      30.30R
Montauk          N/A     52  48  86 CALM      30.31R
$$

NYZ052-065-067-211300-
HUDSON VALLEY

CITY           SKY/WX    TMP DP  RH WIND       PRES   REMARKS
White Plains   PTCLDY    51  42  71 NW7       30.30R
Larchmont Harb   N/A     52 N/A N/A NW3         N/A
Croton On Huds   N/A     48 N/A N/A NE2         N/A
Newburgh       CLEAR     45  39  81 CALM      30.33R
Montgomery     CLEAR     40  38  93 CALM      30.32R
Poughkeepsie   CLEAR     38  36  92 CALM      30.33R
Albany         PTCLDY    42  36  79 CALM      30.32R
$$

NJZ001-105-106-008-010-013-015-019>022-104-211300-
NEW JERSEY

CITY           SKY/WX    TMP DP  RH WIND       PRES   REMARKS
Newark/Liberty PTCLDY    55  40  56 CALM      30.31R
Teterboro      CLEAR     51  42  71 CALM      30.31R
Caldwell       CLEAR     43  42  97 CALM      30.33R
Somerville     CLEAR     38  38 100 CALM      30.31R
Linden         FAIR      49  40  70 CALM      30.32R
Perth Amboy      N/A     50 N/A N/A W7          N/A
Sussex         CLEAR     38  38 100 CALM      30.33R
Andover          N/A     40  39  97 CALM      30.34R
Trenton        CLEAR     47  40  76 NW3       30.32R
Millville      CLEAR     47  44  90 CALM      30.31R
Atlantic City  CLEAR     49  41  74 CALM      30.31R
Wrightstown    CLEAR     43  40  89 CALM      30.29R
Toms River       N/A     40  37  89 CALM      30.32R
Belmar         CLEAR     46  40  79 W6        30.32R
$$

PAZ047>061-062-071-211300-
EASTERN PENNSYLVANIA

CITY           SKY/WX    TMP DP  RH WIND       PRES   REMARKS
Philadelphia   PTCLDY    53  40  61 N3        30.32R
Allentown      CLEAR     42  38  85 CALM      30.34R
Scranton       CLEAR     40  37  89 CALM      30.35R
$$

CTZ002-004>006-009-010-012-RIZ004-006-007-MAZ004-011-015-211300-
SOUTHERN NEW ENGLAND
 IN CT

CITY           SKY/WX    TMP DP  RH WIND       PRES   REMARKS
Bradley INTL   PTCLDY    42  39  89 CALM      30.30R
Hartford       CLEAR     44  44 100 CALM      30.31R
Danbury        CLEAR     40  38  93 CALM      30.33R
Wtrbury/Oxford CLEAR     46  37  71 CALM      30.32R
Norwalk Harbor NOT AVBL
Bridgeport     CLEAR     50  43  77 CALM      30.30R
Meriden        CLEAR     42  41  96 CALM      30.31R
New Haven      PTCLDY    44  41  89 CALM      30.31R
Chester        FAIR      55  36  47 NW6       30.30R
Groton         CLEAR     48  42  80 CALM      30.29R
Wilimantic     CLEAR     40  37  89 CALM      30.31R

 IN RI

CITY           SKY/WX    TMP DP  RH WIND       PRES   REMARKS
Providence     PTCLDY    47  44  90 CALM      30.29R
Block Island   CLEAR     56  44  64 CALM      30.30R
Westerly       CLEAR     47  42  83 CALM      30.30R
 IN MA

CITY           SKY/WX    TMP DP  RH WIND       PRES   REMARKS
Boston         PTCLDY    54  41  61 S5        30.26R
Worcester      CLEAR     55  31  39 W13       30.28R
Westfield      CLEAR     40  39  97 CALM      30.30R
Provincetown   CLEAR     48  46  93 SW3       30.27R
Nantucket      CLEAR     51  50  96 CALM      30.28R
$$

ANZ330-335-338-340-345-350-353-355-211300-
COASTAL MARINE OBSERVATIONS


STATION/POSITION TIME  SKY/WX   TEMP    WIND        PRES    VSBY  WAVE
                                AIR SEA DIR/SP/G                  HT/PER
                 (UTC)          (F)     (DEG/KT/KT) (MB)    (MI)  (FT/S)
NY HARB ENTRANCE 1050            63 64  350/  6/  6 1024.7          2/ 9
20 S FIRE ISLAND 1050            64 64  360/  6/  8 1025.2          2/ 9
GREAT SOUTH BAY  1130            57 61  350/  6/  8   N/A
15 E BARNEGAT LI NOT AVBL
HUDSON CANYON    1050            65 65   10/  6/  8 1024.3          2/ 9
KINGS POINT      1142            56 65   30/  2/  3 1026.6
EXECUTION ROCKS  1130            58     350/  4/  6   N/A
WESTERN LI SOUND 1049            58     340/  4/  4   N/A           0
CENTRAL LI SOUND NOT AVBL
EASTERN LI SOUND NOT AVBL
ROBBINS REEF     1148            58     300/  7/  9 1026.6
$$


>>>>>>>>>>>>>>>>>>>>>>>>>>>> KEY <<<<<<<<<<<<<<<<<<<<<<<<<<<
>                                                          <
>     SKY/WX - Sky Condition/Present Weather               <
>     TMP    - Temperature in Fahrenheit                   <
>     DP     - Dew Point in Fahrenheit                     <
>     RH     - Relative Humidity in Percent                <
>     WIND   - Direction (from) and Speed in MPH           <
>     PRES   - Mean Sea Level Pressure (inches of Hg)      <
>     WCI    - Wind Chill Index                            <
>     VSB    - VISIBILITY IN MILES                         <
>     HX     - HEAT INDEX                                  <
>     TC     - TEMPERATURE IN CELSIUS                      <
>     VRB    - VARIABLE WIND DIRECTION                     <
>                                                          <
>>>>>>>>>>>>>>>>>>>>>>>>>>>> KEY <<<<<<<<<<<<<<<<<<<<<<<<<<<



USA.gov is the U.S. government's official web portal to all federal, state and local government web resources and services.